User: anonymous
Location: Bishop's University Astronomical Observatory
(45.3661°N, 71.8475°W)
Time: 08:23:21
(UTC-04:00)
Language:

Meteor 2-5 Rocket - Orbit

View from above orbital plane
View from above orbital plane
View from above satellite
View from above satellite

Ground track
Ground track

The orbit data is extracted from the following two-line orbital elements,

1 11608U 79095B   14108.99131943  .00000124  00000-0  66809-4 0  5265
2 11608 081.2139 251.9023 0055188 166.4739 333.3931 14.05999364767743
Epoch (UTC): 18 April 2014 23:47:29
Eccentricity: 0.0055188
inclination: 81.2139°
perigee height: 833 km
apogee height: 913 km
right ascension of ascending node: 251.9023°
argument of perigee: 166.4739°
revolutions per day: 14.05999364
mean anomaly at epoch: 333.3931°
orbit number at epoch: 76774

The dashed part of the orbit path shows where the satellite is in the earth's shadow,  

DLR